Location: Hackberry
(29.5783°N, 96.8797°W)
Time: 14:15:29
(UTC+00:00)

Vanguard 2 Rocket - Pass Details

Date: 19 November 2024
Orbit: 554 x 3296 km, 32.9° (Epoch: 30 November)

Event Time Altitude Azimuth Distance (km) Brightness Sun altitude
Exits shadow 09:27:22 27° 154° (SSE) 2,606 9.2 -45.0°
Maximum altitude 09:29:27 29° 134° (SE) 2,709 9.4 -44.6°
Drops below altitude 10° 09:39:55 10° 82° (E) 4,974 11.3 -42.3°
Sets 09:45:27 0° 73° (ENE) 6,442 12.0 -41.1°
